RH
86 80 76 72 73 82 78 73 68 58 53 51 47 43 44 46 44 42 40 43 46 45 43 43 44 45 48 51 56 62 66 69 72 74 77 80 82 81 75 70 70 69 70 72 74 74 72 73 73 74 73 72 70 65 64 63 59 51 37 26 22 24 24 25 25 22 21 21 19 17 16 14 13 11 10 10 10 10 11 11 11 11 12 12 13 12 9 18
85 81 77 73 72 74 76 77 72 63 58 54 49 44 45 47 45 42 41 44 47 46 46 46 48 49 50 53 59 65 68 70 73 73 72 75 81 83 78 72 69 69 70 70 73 73 73 75 74 73 72 72 72 68 67 65 60 54 41 27 23 25 24 24 24 22 20 21 20 18 17 15 13 12 10 11 12 11 13 16 16 13 13 13 14 14 11 17
82 82 82 80 78 75 73 78 76 67 64 58 51 46 46 48 48 44 42 45 48 47 47 49 50 51 53 56 61 68 71 73 74 71 69 71 77 81 80 74 69 68 69 68 69 72 75 79 76 73 73 73 73 71 68 66 61 55 39 26 26 25 22 22 22 22 20 20 21 18 17 15 13 12 11 11 12 12 13 18 20 16 14 13 14 14 13 17
85 84 88 87 83 78 74 81 82 73 69 65 55 48 48 50 51 47 44 47 49 47 48 51 51 51 55 60 66 70 72 75 72 67 68 70 73 78 78 75 68 65 67 65 65 68 73 80 79 74 74 73 72 72 70 67 62 56 41 26 23 21 19 22 21 21 21 20 20 18 17 15 13 12 11 10 12 12 11 12 13 13 12 12 15 16 14 16
90 87 88 90 87 82 79 82 84 80 77 72 61 51 48 51 53 50 49 50 51 49 49 52 52 53 56 61 68 71 74 76 68 66 71 70 71 72 73 73 67 65 66 63 61 65 69 75 78 76 75 73 73 74 72 67 62 57 45 26 18 19 19 21 21 21 21 20 19 18 17 15 13 12 10 10 11 11 10 9 8 8 8 9 12 15 16 16
89 89 87 89 92 91 85 83 81 80 81 77 67 56 50 51 55 53 53 55 54 52 52 54 54 55 58 62 69 72 74 72 63 66 72 70 70 68 68 71 68 67 67 63 61 65 68 71 75 78 77 75 75 77 74 68 61 58 49 27 17 19 20 20 19 19 20 20 19 18 17 15 13 12 10 9 9 9 8 8 8 7 7 8 9 12 15 15
88 89 86 87 95 95 86 84 83 79 81 79 70 62 53 52 55 55 57 59 57 55 55 56 57 60 63 66 71 73 73 69 61 66 71 69 70 68 68 69 67 68 68 66 63 66 69 69 72 76 81 80 76 75 75 70 61 58 50 30 19 18 19 20 19 18 19 19 19 18 17 14 13 12 10 9 8 8 8 8 8 7 8 9 10 11 11 12
87 90 86 87 94 96 88 86 87 83 81 78 71 65 56 53 55 56 58 61 59 58 58 59 61 65 70 72 74 73 72 71 63 65 70 69 69 69 68 67 69 71 70 69 67 68 69 67 68 74 83 84 77 74 74 72 65 59 50 33 20 18 18 20 19 18 19 19 19 17 17 15 13 11 10 9 8 8 7 8 7 8 8 10 11 10 10 10
85 89 88 88 91 95 94 90 87 84 82 78 71 68 60 54 57 57 58 66 64 60 61 63 65 69 74 76 77 74 71 72 67 63 67 69 69 70 69 68 69 71 72 71 69 68 68 66 67 72 80 83 78 75 75 71 65 59 50 36 22 17 19 20 20 19 19 19 18 18 17 14 12 11 10 9 8 8 7 7 8 8 9 10 10 10 10 10
82 86 90 89 88 92 96 97 91 84 84 79 71 71 64 57 61 59 60 72 72 65 65 67 69 72 76 78 78 76 71 73 70 62 64 69 69 70 71 71 68 68 71 71 68 67 67 66 67 71 78 81 78 76 75 70 65 59 50 40 27 18 19 20 20 20 20 19 18 18 18 15 12 11 10 8 8 8 7 8 8 9 9 9 10 10 9 9
79 82 88 89 87 88 91 98 97 89 87 80 72 73 70 62 64 63 63 76 79 72 69 70 72 73 76 78 77 75 71 72 70 63 64 68 69 70 69 72 70 68 69 69 68 67 67 67 68 72 78 80 79 78 74 68 64 59 50 43 32 21 20 21 20 21 21 20 18 18 17 15 13 12 11 9 8 8 8 8 8 8 9 9 9 10 10 9
77 78 84 89 89 86 86 92 98 96 89 83 78 76 75 68 65 67 68 78 82 76 74 73 74 74 76 77 74 74 75 74 70 66 67 65 67 69 66 71 75 72 70 68 68 67 66 66 66 71 76 78 80 81 75 66 63 58 51 46 38 26 21 21 21 22 22 21 19 18 18 15 13 12 11 9 9 9 9 8 8 9 9 9 9 9 10 9
74 77 80 86 91 90 86 87 96 100 92 87 83 78 79 72 67 71 73 80 82 78 78 76 74 75 77 76 72 74 79 77 72 69 70 66 66 69 67 68 75 78 75 69 67 66 65 64 64 68 73 76 80 80 73 64 61 57 51 47 42 32 24 22 22 24 23 21 20 19 20 17 14 13 11 10 10 10 11 9 9 9 9 9 10 10 9 9
67 74 77 81 86 89 89 87 94 98 94 95 89 81 81 74 68 72 77 83 82 79 80 78 77 79 78 76 74 76 81 79 75 73 73 68 65 68 69 67 72 81 79 72 69 67 64 63 63 65 72 77 79 78 71 63 60 57 51 48 44 36 28 24 23 25 23 21 21 20 20 17 15 14 12 11 11 11 12 11 10 10 10 10 10 10 10 10
61 69 74 79 82 86 90 88 93 98 96 98 95 86 82 76 70 74 83 84 81 80 80 79 81 80 78 77 75 78 80 78 76 77 74 70 64 64 68 67 70 78 76 72 70 66 63 61 61 63 69 76 79 77 71 64 61 57 51 49 46 37 31 26 23 24 23 21 21 21 21 18 16 15 12 11 11 11 11 11 11 11 11 10 10 10 10 10
57 64 71 79 82 84 89 89 93 99 98 98 97 90 84 80 73 76 86 84 82 84 81 82 82 79 78 76 74 75 76 74 76 78 75 73 67 61 65 67 68 71 67 64 62 60 60 58 59 62 64 69 74 74 70 66 64 60 53 51 49 39 28 24 23 23 22 22 22 22 22 19 16 15 12 12 12 11 12 11 11 11 11 10 10 9 9 9
52 60 66 75 80 83 88 89 91 98 100 98 97 92 85 80 73 78 89 85 85 89 86 84 81 80 79 71 70 72 72 72 75 76 74 76 72 62 63 67 67 66 60 54 53 53 55 55 56 60 61 63 67 70 71 67 63 61 53 48 49 41 27 21 22 22 21 22 22 23 23 20 16 15 13 12 12 12 12 11 11 11 10 10 9 9 9 9
47 54 63 70 76 82 87 88 88 94 100 99 99 97 89 80 76 82 92 88 85 91 95 92 86 86 79 67 65 68 70 73 76 75 72 75 73 65 62 60 60 61 55 50 49 50 52 52 52 57 60 60 61 65 68 66 63 61 54 46 46 40 26 21 22 21 20 21 21 23 23 20 18 17 15 13 12 12 12 11 11 11 10 10 9 9 9 8
44 48 58 66 72 81 87 87 88 93 98 98 99 100 92 81 81 88 94 89 83 87 90 85 81 78 69 64 64 67 73 74 73 72 71 76 75 68 63 58 57 57 53 50 49 49 50 49 48 53 58 59 60 61 63 66 63 58 52 45 44 40 27 20 21 21 20 20 20 21 21 19 18 18 17 15 13 12 12 12 11 11 11 10 10 9 9 8
46 46 52 62 69 77 85 87 89 95 98 98 99 103 96 84 86 95 93 85 77 76 73 71 72 65 60 66 68 70 76 72 70 68 68 78 79 71 66 60 57 55 52 51 49 48 49 48 48 52 58 61 62 60 61 64 59 51 48 45 43 40 28 19 21 21 20 20 20 20 20 19 19 19 18 16 15 14 12 12 11 11 11 10 10 9 8 8
47 51 50 58 65 72 83 86 90 97 99 99 99 99 88 73 71 73 74 78 78 73 70 72 75 67 62 68 69 69 70 67 66 64 67 79 81 75 69 59 55 55 53 50 46 45 47 48 47 51 57 62 62 61 61 62 57 49 49 48 45 43 31 21 21 21 19 19 20 21 21 20 20 20 18 16 16 15 13 11 10 10 10 10 10 9 8 8
46 54 50 55 64 69 78 85 89 96 98 97 97 94 82 66 56 52 58 71 76 72 71 78 83 76 70 72 71 68 65 64 65 64 68 77 77 72 67 59 55 56 55 50 46 46 45 46 49 52 55 60 62 61 60 61 56 50 50 49 47 46 38 25 21 22 21 19 21 22 21 21 21 20 18 17 16 14 12 11 10 10 10 10 9 9 8 8
40 50 49 54 64 69 73 82 89 96 99 96 95 93 85 71 58 55 61 69 75 74 73 81 87 81 77 78 75 70 66 63 63 66 67 69 68 65 61 56 55 58 56 49 45 45 46 48 52 55 56 59 63 61 61 62 57 52 50 48 47 47 40 29 22 22 22 21 23 23 22 21 21 20 19 17 15 13 12 11 10 10 9 9 8 8 7 7
33 45 49 49 61 69 71 81 93 97 98 98 97 94 87 76 63 58 63 72 79 78 75 79 82 80 78 78 74 74 73 65 62 65 65 62 62 59 54 54 57 58 53 48 47 47 50 52 53 54 55 57 61 61 62 62 58 54 51 48 48 48 42 31 24 23 23 23 24 23 22 23 21 20 18 15 15 14 12 11 10 9 9 8 8 8 7 6
29 40 45 47 59 67 72 87 97 95 96 99 98 96 92 81 70 61 64 77 83 80 79 77 77 77 76 76 75 75 75 70 65 66 65 62 58 54 53 56 55 53 52 51 54 54 53 53 53 53 53 54 57 58 60 60 56 53 51 48 46 48 44 35 28 27 24 24 25 22 24 28 26 22 19 16 15 13 11 12 10 9 9 8 8 8 7 6
26 34 41 46 54 67 82 93 94 93 98 101 97 96 95 85 76 66 67 83 87 82 80 76 76 77 74 77 77 76 79 75 69 69 69 67 63 61 60 55 49 50 54 53 52 53 51 51 53 53 51 52 54 54 55 55 52 50 50 49 47 49 48 39 31 29 27 26 25 24 25 28 24 20 19 18 16 13 11 11 10 9 9 9 8 7 7 7
23 29 38 44 50 69 87 88 90 96 96 95 93 93 95 88 80 69 68 88 89 78 79 78 78 78 75 77 75 75 81 75 70 72 72 69 66 66 64 55 49 52 55 53 50 48 48 51 56 56 53 52 50 49 51 52 48 48 51 51 49 50 49 41 32 30 31 28 28 30 27 24 22 19 19 19 15 14 13 11 11 9 9 9 8 7 7 7
21 26 35 44 48 62 76 77 84 89 82 80 84 90 94 89 82 72 74 92 88 73 75 78 76 77 79 80 75 72 71 69 72 75 74 74 69 66 66 58 52 53 53 52 50 47 47 51 53 53 52 51 47 47 52 52 47 49 55 54 50 50 50 43 34 32 32 28 29 32 26 24 27 23 21 19 14 13 14 11 11 10 8 8 7 7 7 7
19 25 35 42 43 52 67 72 72 73 74 78 84 90 92 89 84 78 79 88 82 69 69 75 77 78 81 81 76 71 67 68 73 74 75 81 79 73 69 59 52 54 55 53 52 51 49 48 47 48 48 47 46 48 53 52 49 51 56 55 52 53 51 45 41 36 32 29 31 32 26 26 29 26 21 18 13 12 13 11 11 10 8 8 7 7 6 6
19 24 35 41 42 52 71 80 74 72 77 82 86 88 88 92 88 86 91 87 76 69 66 71 75 76 80 82 79 75 70 68 71 76 78 79 81 76 66 58 53 55 58 56 56 56 51 47 47 48 47 45 46 49 52 53 52 52 55 54 51 52 51 50 50 40 32 34 36 34 29 25 27 27 21 16 14 12 11 10 10 9 8 8 7 7 6 6
20 24 35 42 43 52 72 87 87 84 83 82 86 86 87 94 91 91 93 76 66 71 67 68 75 77 78 77 77 76 74 70 67 73 75 72 75 72 60 54 52 55 58 54 54 55 50 46 45 43 43 44 46 47 50 55 55 54 56 54 50 53 52 51 51 41 37 41 38 35 32 26 27 27 19 16 16 14 12 11 10 9 8 8 7 8 7 7
21 25 37 39 36 48 64 72 76 84 87 81 81 86 91 97 95 92 82 64 65 73 66 64 69 71 70 68 70 74 76 74 66 66 71 71 72 66 55 50 47 50 53 50 50 50 45 44 42 39 38 40 44 46 47 53 54 53 55 53 51 56 54 50 51 47 43 42 34 32 30 27 28 23 16 16 14 13 13 11 10 10 9 8 8 8 7 7
21 25 38 38 34 48 60 61 65 79 88 82 78 87 95 98 94 83 70 61 63 61 57 59 59 60 63 65 69 72 75 76 69 66 70 73 71 63 55 50 44 44 47 48 48 46 45 46 42 37 36 37 41 42 43 49 51 51 53 53 54 58 54 51 55 52 44 40 34 31 30 29 28 21 17 16 12 12 13 11 11 10 9 9 8 8 8 8
23 29 41 42 38 47 58 64 72 80 85 85 84 91 97 97 88 73 63 58 54 51 55 59 58 60 64 66 67 67 71 76 71 67 69 72 69 59 52 48 42 40 42 44 44 42 44 45 41 38 37 38 39 41 44 47 49 52 55 53 53 55 53 52 54 49 41 38 35 32 31 29 25 20 18 17 13 13 12 11 12 11 10 9 8 9 9 8
27 34 40 44 46 50 57 66 75 80 81 83 89 95 95 90 83 71 62 54 50 55 61 61 60 62 66 69 69 67 70 74 72 69 68 68 63 54 47 43 39 38 37 38 40 40 39 40 43 43 41 40 41 44 46 47 48 52 55 53 50 50 51 51 51 49 44 41 39 35 32 30 24 19 18 17 15 14 12 13 13 12 11 10 9 10 9 10
37 40 40 47 51 51 58 67 74 77 74 76 88 95 86 75 70 65 57 48 45 51 60 66 67 64 65 71 72 71 70 69 70 68 64 62 58 53 46 39 35 33 31 32 38 39 37 41 46 45 43 44 45 47 48 47 48 49 50 52 52 51 51 49 47 49 46 42 42 38 32 32 27 20 19 17 15 15 13 14 13 12 12 11 10 11 10 11
47 46 44 51 54 50 55 65 74 76 73 75 80 81 73 64 59 59 54 46 42 45 55 66 68 63 64 68 68 68 67 66 68 65 61 59 55 49 45 38 32 29 28 30 35 36 37 43 47 44 42 45 48 50 50 49 50 50 48 50 52 53 53 50 48 50 47 45 47 42 35 34 30 25 25 20 17 16 15 15 14 13 13 13 12 11 10 11
49 50 51 52 53 54 57 65 74 74 73 77 75 69 65 62 59 59 59 53 46 46 54 63 62 58 58 60 60 59 58 62 64 60 57 55 49 42 39 36 33 30 29 30 32 34 36 43 47 45 45 48 49 50 50 48 47 49 50 49 51 52 52 50 49 50 48 46 49 46 39 37 33 30 27 22 19 18 16 15 16 15 15 13 12 11 10 10
53 60 63 52 49 59 64 69 76 75 74 76 74 68 64 63 60 59 58 56 50 46 50 54 54 54 55 53 54 56 54 54 56 55 53 50 45 39 35 33 33 32 30 30 32 34 36 44 49 46 46 49 49 48 48 47 45 47 50 49 49 50 51 50 50 50 50 51 52 47 42 40 36 32 27 21 20 19 15 15 16 15 14 13 12 12 11 10
62 66 65 53 54 67 70 69 78 85 80 70 64 63 60 58 57 56 56 56 51 46 44 47 48 51 54 52 54 59 57 56 56 53 50 46 42 39 35 32 31 32 31 30 32 34 36 42 49 50 48 48 47 46 48 48 47 47 48 49 48 47 49 51 51 51 50 52 53 48 43 42 37 33 29 23 21 19 16 16 17 16 13 12 12 12 12 11
64 63 64 60 62 71 75 76 83 87 78 62 59 61 57 55 56 57 58 57 53 46 40 41 42 44 48 51 54 58 60 62 60 54 50 45 40 38 34 30 30 31 31 30 32 35 36 39 48 53 50 47 48 51 54 53 50 47 46 46 46 46 49 50 50 51 48 48 51 48 42 38 35 34 30 26 25 22 20 20 19 17 14 13 13 13 13 13
64 68 69 69 70 74 78 82 84 80 70 62 61 60 56 56 56 58 61 60 57 49 41 39 40 40 43 46 49 54 58 61 59 53 50 44 39 38 34 28 28 29 29 31 33 38 43 45 50 53 50 48 52 57 59 58 55 52 48 45 45 46 46 47 48 50 49 47 49 49 40 31 32 37 33 29 29 27 25 24 22 19 17 16 16 15 15 15
70 74 73 73 76 82 86 87 85 79 71 64 62 60 58 55 52 54 60 62 57 49 43 40 38 38 39 40 46 52 55 59 59 53 49 45 41 38 33 27 28 29 30 33 34 38 43 46 48 52 52 52 55 58 58 58 56 52 49 48 47 47 48 50 51 49 47 45 44 44 38 27 31 41 38 33 33 30 29 28 25 22 21 19 19 18 17 17
74 73 74 78 80 83 86 87 85 81 75 70 69 69 64 55 50 50 54 59 56 46 41 39 36 34 34 34 38 44 50 56 58 53 50 47 39 34 31 28 28 30 29 30 31 32 36 41 46 53 57 56 58 58 54 53 53 52 53 53 49 50 51 50 48 45 43 42 41 39 35 26 29 38 37 35 36 33 30 28 26 25 24 23 23 21 20 20
79 80 83 86 87 88 86 79 74 71 70 70 71 70 66 59 53 49 49 54 54 44 38 37 34 32 33 33 34 38 44 49 51 51 50 44 36 33 31 27 27 28 28 28 29 31 37 41 41 46 51 51 51 50 47 50 53 53 55 54 51 50 47 45 46 43 38 40 40 34 29 26 27 31 32 33 34 33 31 29 27 27 26 27 26 24 24 23
81 91 97 96 97 96 89 78 70 67 66 67 67 66 63 59 55 51 52 54 51 45 40 38 35 34 35 35 36 39 43 48 50 48 44 39 35 35 31 27 27 27 28 30 31 35 43 43 37 35 36 36 38 40 43 50 52 49 49 52 51 50 47 47 49 42 36 40 39 30 26 28 28 28 30 33 34 34 34 31 29 28 28 28 28 27 27 26
75 86 94 96 97 98 95 87 79 72 67 64 62 60 57 56 56 54 53 51 47 43 42 41 36 36 36 35 36 39 42 48 51 45 40 40 40 37 33 31 31 30 30 32 33 36 42 41 36 34 32 34 41 44 45 49 50 48 50 52 51 52 52 50 44 37 39 42 35 28 29 30 29 29 31 33 34 34 35 32 30 29 29 28 28 29 29 29
79 84 84 78 80 87 90 85 77 71 66 63 62 60 57 57 56 53 51 50 45 40 42 42 38 34 34 32 34 38 43 50 51 45 41 43 42 39 37 37 36 34 34 35 35 36 37 36 36 38 37 39 44 47 47 49 49 50 52 51 52 54 53 45 38 38 43 39 29 29 32 28 28 30 30 32 33 32 32 32 31 30 30 29 28 29 30 31
85 89 87 79 73 69 68 67 65 64 63 64 67 65 60 57 54 51 51 49 45 40 39 39 37 34 33 31 32 37 42 46 48 45 42 41 40 38 40 41 40 39 39 39 39 38 35 37 40 40 40 42 46 50 51 50 50 51 53 53 53 51 46 39 37 41 43 34 27 31 32 27 28 31 30 31 33 33 34 34 33 33 32 31 31 31 32 32
88 86 83 81 77 70 66 66 66 66 65 65 67 64 58 54 50 49 50 46 42 41 38 34 34 35 32 32 33 34 35 36 38 40 40 40 38 37 38 40 40 42 42 41 41 39 37 42 45 43 46 48 48 53 55 52 51 52 53 53 49 44 42 40 39 43 43 35 31 35 34 29 28 30 31 34 36 38 39 39 37 37 36 36 36 36 35 33
89 82 74 69 70 71 71 69 66 67 67 65 64 61 55 50 47 47 48 46 42 40 36 32 33 35 34 34 34 33 33 32 33 35 34 33 33 33 34 37 38 41 43 43 44 42 42 46 47 48 52 50 49 56 59 55 55 56 52 47 42 41 41 41 41 43 41 37 39 41 35 29 29 32 34 37 39 40 41 41 40 40 40 40 40 39 37 34
85 81 73 65 65 69 69 68 66 66 63 58 56 56 53 49 47 46 46 47 46 41 37 35 34 36 37 37 35 33 32 32 31 32 30 28 29 31 31 33 34 36 39 42 45 46 47 48 49 52 53 51 53 60 60 59 62 57 43 36 37 40 42 42 43 43 40 38 40 38 30 28 34 35 34 37 39 40 41 42 43 42 42 42 40 39 38 36